Location: Bosmont
(49.7318°N, 3.8587°E)
Time: 10:04:18
(UTC+00:00)

Lacrosse 5 - Visible Passes

Search period start: 28 September 2023 00:00
Search period end: 08 October 2023 00:00
Orbit: 714 x 724 km, 57.0° (Epoch: 09 March)

Date Brightness Start Highest point End Pass type
(mag) Time Alt. Az. Time Alt. Az. Time Alt. Az.
28 Sep 3.0 18:32:11 10° WNW 18:36:56 37° N 18:41:36 10° ENE visible
28 Sep 2.4 20:15:48 10° NW 20:20:45 48° NNE 20:20:47 48° NNE visible
28 Sep 4.4 21:58:53 10° WNW 21:59:58 16° WNW 21:59:58 16° WNW visible
29 Sep 2.8 19:22:30 10° WNW 19:27:20 40° NNE 19:29:24 28° ENE visible
29 Sep 3.3 21:05:40 10° WNW 21:08:35 35° NW 21:08:35 35° NW visible
30 Sep 2.9 18:29:08 10° WNW 18:33:52 37° N 18:38:02 13° ENE visible
30 Sep 2.2 20:12:28 10° NW 20:17:14 61° N 20:17:14 61° N visible
30 Sep 4.6 21:55:40 10° WNW 21:56:25 14° WNW 21:56:25 14° WNW visible
01 Oct 2.4 19:19:16 10° NW 19:24:12 48° NNE 19:25:53 35° ENE visible
01 Oct 3.5 21:02:20 10° WNW 21:05:05 31° WNW 21:05:05 31° WNW visible
02 Oct 2.7 18:25:58 10° WNW 18:30:47 40° NNE 18:34:34 16° ENE visible
02 Oct 2.0 20:09:07 10° WNW 20:13:46 73° NW 20:13:46 73° NW visible
02 Oct 4.7 21:52:40 10° WNW 21:52:58 11° WNW 21:52:58 11° WNW visible
03 Oct 2.0 19:15:56 10° NW 19:21:01 62° NNE 19:22:30 43° E visible
03 Oct 3.7 20:59:07 10° WNW 21:01:41 26° W 21:01:41 26° W visible
04 Oct 2.4 18:22:43 10° NW 18:27:40 47° NNE 18:31:15 18° E visible
04 Oct 2.2 20:05:48 10° WNW 20:10:27 61° WSW 20:10:27 61° WSW visible
05 Oct 1.8 19:12:34 10° WNW 19:17:44 86° NE 19:19:16 46° ESE visible
05 Oct 4.0 20:56:07 10° WNW 20:58:28 20° W 20:58:28 20° W visible
06 Oct 2.0 18:19:24 10° NW 18:24:28 61° NNE 18:28:08 19° ESE visible
06 Oct 2.8 20:02:34 10° WNW 20:07:21 40° SW 20:07:21 40° SW visible
07 Oct 2.1 19:09:15 10° WNW 19:14:19 65° SW 19:16:17 36° SSE visible
07 Oct 4.4 20:53:42 10° W 20:55:30 14° WSW 20:55:30 14° WSW visible
